Wind_Speed
12 14 17 17 17 16 14 15 13 12 13 13 14 14 16 14 13 13 14 15 16 15 14 12 12 13 13 12 12 11 11 11 10 10 10 7 7 9 8 8 9 13 11
13 12 14 16 18 17 16 16 16 15 13 15 10 10 15 16 15 13 12 12 14 13 13 12 11 11 10 10 9 9 9 9 8 9 9 8 9 9 10 11 12 14 13
20 17 15 18 20 19 20 21 20 19 17 17 17 16 14 17 17 14 13 13 14 12 12 12 14 11 12 11 11 10 9 9 9 10 11 11 11 9 10 12 14 14 15
25 22 22 20 18 18 19 23 23 22 22 22 21 19 19 19 18 17 16 16 15 13 12 12 12 11 13 13 13 13 12 12 11 12 13 13 11 9 9 11 13 16 17
26 26 24 20 19 17 18 22 25 25 24 24 24 23 22 22 20 20 20 19 16 16 18 18 16 14 13 15 14 14 15 14 14 14 13 13 11 10 10 10 10 12 14
28 28 30 29 26 27 23 20 23 25 24 25 23 23 24 24 24 24 22 22 20 18 18 18 18 17 18 17 18 17 18 18 18 16 14 14 13 13 13 13 13 15 15
35 32 33 38 31 32 28 31 25 25 26 24 18 18 27 27 26 27 24 21 20 21 19 19 20 20 20 19 19 19 19 19 18 18 17 15 15 15 15 17 16 15 17
39 37 37 41 41 30 32 32 31 28 31 30 27 24 24 30 28 28 28 24 22 22 20 19 20 21 21 21 21 21 22 20 20 20 19 19 17 17 17 18 20 22 24
33 38 37 39 46 27 30 33 30 30 33 34 29 28 26 25 36 34 35 27 23 24 25 25 25 25 26 23 22 23 23 21 21 21 21 21 20 19 21 23 25 28 30
22 23 22 43 27 29 30 33 32 35 32 27 25 26 24 28 29 42 35 36 27 24 26 26 28 29 30 29 24 21 22 23 23 23 24 23 23 22 22 24 25 22 21
16 15 20 20 24 23 23 22 24 30 32 24 23 17 17 17 13 9 24 24 29 32 29 27 27 28 29 33 26 25 23 23 25 24 25 25 25 24 24 20 20 21 22
8 4 4 10 15 24 19 28 16 20 26 14 11 13 13 11 15 19 21 20 24 23 20 18 16 18 21 24 28 28 32 34 29 30 30 28 29 27 23 21 19 20 22
11 7 3 4 4 4 14 36 26 23 15 13 14 18 15 12 10 11 14 18 20 20 19 18 20 21 18 16 19 20 23 28 37 35 31 29 24 22 23 23 21 22 22
11 6 9 10 10 7 4 8 13 9 11 13 13 12 13 13 12 16 15 17 15 17 18 20 20 18 18 17 16 18 17 16 16 16 20 23 24 25 25 24 23 23 22
14 11 10 8 8 8 8 10 13 15 17 18 19 17 15 17 19 19 18 18 19 21 22 20 20 19 19 19 19 20 21 22 23 24 25 25 26 27 27 26 24 23 22
12 14 12 15 16 16 15 16 15 17 20 22 20 19 16 16 19 22 23 18 19 21 21 22 23 22 24 24 25 26 26 28 28 28 28 28 28 27 26 25 24 23 22
11 10 11 14 14 12 18 16 14 14 18 22 20 18 21 23 22 26 26 22 25 29 25 26 26 27 28 30 27 28 28 30 30 29 29 29 28 27 25 25 24 23 23
10 11 12 12 14 19 20 18 17 18 20 20 20 21 22 23 24 26 23 24 25 26 25 23 28 25 23 26 26 26 29 30 31 30 29 28 27 26 25 24 24 25 25
9 10 12 14 13 12 12 12 18 20 21 20 21 22 22 23 24 24 22 24 23 18 16 16 20 29 24 23 23 25 29 30 27 27 27 26 26 25 24 24 25 25 26
8 9 10 11 13 14 14 14 16 16 17 17 18 18 20 22 24 26 25 24 26 28 29 29 27 22 20 20 23 25 27 28 25 24 23 22 22 23 24 24 24 23 24
6 6 7 9 10 10 11 12 13 14 15 16 17 18 20 22 24 26 26 26 25 23 22 21 21 24 27 30 31 31 30 29 23 23 22 23 23 20 21 23 24 24 24
10 10 10 10 11 11 11 12 12 13 14 15 15 16 17 18 20 20 21 21 21 20 21 22 23 25 26 28 29 30 30 30 29 29 25 26 26 28 25 27 25 28 31
17 16 16 16 15 14 14 15 16 18 19 18 18 19 18 18 19 20 20 21 21 20 19 19 21 23 23 24 24 23 23 22 22 21 21 23 23 23 23 24 24 24 25
18 19 20 20 19 19 19 20 21 21 21 20 20 21 21 21 21 21 22 23 23 20 18 19 20 21 21 21 21 20 19 18 18 18 19 19 20 20 21 21 21 22 22
19 19 20 21 22 22 22 21 20 21 23 26 25 25 25 22 19 21 21 21 20 19 18 19 20 21 19 18 17 17 18 18 17 17 18 18 19 19 19 19 19 19 20
18 18 19 20 22 24 25 26 27 26 26 27 25 22 25 26 20 19 20 20 20 22 22 18 18 18 16 14 13 13 14 15 15 16 17 18 18 18 18 17 19 20 21
Wind_Direction
220 219 214 211 214 222 229 228 239 243 247 244 268 269 237 237 241 244 249 250 253 258 265 269 264 267 278 282 280 273 270 274 289 310 321 328 335 329 322 323 311 328 326
213 213 229 224 223 224 226 232 237 243 253 255 257 258 244 242 245 233 241 249 253 259 271 272 276 279 282 288 286 281 273 274 288 296 301 315 319 317 312 316 318 321 315
245 247 241 235 235 236 235 236 237 239 244 247 248 240 244 236 235 238 243 242 250 256 260 264 272 276 283 286 290 292 290 288 291 293 296 303 308 311 305 311 316 318 312
248 257 248 247 245 253 249 243 238 240 242 244 243 246 237 235 235 236 245 250 255 259 263 269 266 269 270 270 273 278 276 277 278 279 285 288 293 296 301 304 307 309 308
249 253 256 251 245 256 259 252 246 243 242 245 246 243 243 239 240 241 242 246 250 251 265 251 261 262 258 258 265 273 274 272 269 274 278 285 291 293 292 291 297 308 312
243 251 250 247 245 258 257 249 247 248 243 247 250 249 247 244 240 242 243 246 245 244 235 244 252 259 261 264 267 267 273 276 276 277 276 279 284 288 290 288 288 293 301
243 239 239 244 242 252 247 252 251 249 243 234 240 268 251 238 238 241 242 243 244 239 241 241 243 251 255 259 261 264 266 268 269 272 277 282 285 286 284 284 283 279 285
242 242 247 241 244 241 239 250 243 247 239 243 250 264 257 237 238 239 240 236 242 250 251 248 250 254 254 254 258 262 262 265 268 270 275 280 281 280 279 278 281 286 289
245 255 250 259 245 242 248 250 235 248 247 251 260 266 268 254 234 230 239 234 240 245 251 254 253 254 250 246 252 261 264 264 262 267 270 272 272 276 278 281 287 293 291
300 295 281 259 237 245 252 252 250 242 247 253 259 265 271 255 266 238 234 234 241 245 253 259 256 246 253 249 246 255 263 264 264 265 266 267 274 276 279 284 288 285 288
313 302 273 313 237 246 249 253 249 247 242 252 243 265 253 241 237 254 244 239 233 248 262 262 265 264 258 250 243 254 259 265 267 265 267 265 267 270 276 280 281 280 283
265 285 318 314 273 247 253 246 280 254 251 199 242 259 270 262 259 247 250 256 256 260 263 251 259 259 254 251 246 256 265 258 263 265 272 268 271 270 270 275 283 286 288
246 236 267 170 254 343 273 272 258 266 213 207 246 258 269 278 250 251 247 257 256 263 266 265 259 259 261 255 263 249 264 262 261 266 266 262 267 275 280 284 286 286 284
258 245 210 208 214 214 233 260 188 201 232 257 263 258 273 275 259 246 266 261 262 255 260 267 258 257 256 258 261 261 265 268 270 269 270 274 276 277 281 281 279 278 276
228 207 202 217 221 227 238 249 231 245 252 241 248 256 264 270 261 258 259 261 258 253 257 256 248 261 261 263 265 264 267 271 275 277 278 278 278 278 278 279 279 276 273
241 230 229 242 253 254 248 236 241 251 233 251 244 237 258 269 273 256 250 263 260 249 258 256 247 258 258 260 262 266 269 273 275 277 279 279 279 278 277 275 272 270 269
221 219 230 244 250 249 244 261 255 253 260 259 267 272 263 248 239 250 253 249 249 250 240 242 245 252 260 267 269 269 265 270 273 274 276 277 275 271 269 268 267 268 269
246 241 244 254 256 258 263 264 274 270 261 265 262 265 265 255 253 246 242 262 260 264 267 262 261 259 262 263 266 269 277 276 271 270 270 269 267 266 264 261 262 265 269
270 269 262 261 262 264 263 267 271 277 274 274 275 276 277 277 274 289 292 281 266 267 273 277 280 275 272 268 272 276 278 274 275 280 277 274 272 269 266 269 272 273 275
254 260 258 254 257 260 263 262 266 268 270 268 269 272 276 280 283 284 283 282 283 282 277 274 258 259 258 266 273 277 279 282 279 279 279 278 276 276 276 275 276 278 282
282 276 269 270 274 277 277 276 274 271 268 268 272 276 278 278 278 279 282 283 283 283 280 277 270 264 264 268 273 281 275 273 279 277 271 269 272 281 286 285 283 283 286
279 280 281 283 287 287 285 286 289 292 294 293 293 292 290 287 286 286 287 287 287 286 281 276 272 268 267 269 271 270 270 272 267 267 267 269 271 276 280 287 280 284 285
277 274 276 279 282 284 286 288 292 298 295 293 296 296 295 295 295 293 292 290 289 288 286 281 275 273 274 274 276 277 277 274 271 268 265 267 269 272 274 273 273 274 275
287 271 267 269 271 275 281 285 289 291 292 292 294 293 293 292 292 292 292 290 290 288 283 278 278 278 279 280 281 281 280 277 274 272 271 271 272 272 273 274 276 279 283
292 287 279 268 269 271 274 277 283 289 292 292 287 288 290 284 291 290 288 286 284 283 281 277 276 279 284 286 285 284 281 278 275 272 272 272 271 272 273 276 281 285 289
284 284 281 276 274 272 276 281 284 283 283 287 285 282 287 295 294 289 278 275 280 283 282 277 275 277 281 285 285 282 283 283 280 277 274 274 274 274 274 280 287 289 292
Height
3210 3211 3212 3215 3217 3219 3221 3222 3223 3224 3224 3225 3226 3225 3226 3228 3228 3229 3229 3229 3230 3231 3232 3231 3231 3232 3232 3232 3232 3232 3232 3232 3232 3231 3231 3230 3229 3227 3226 3225 3224 3222 3221
3208 3209 3211 3212 3214 3216 3218 3219 3219 3220 3221 3222 3222 3223 3224 3224 3225 3226 3227 3228 3228 3228 3228 3228 3228 3229 3229 3230 3229 3229 3229 3229 3229 3229 3228 3228 3228 3227 3225 3224 3222 3221 3220
3206 3207 3208 3209 3211 3213 3214 3214 3215 3216 3217 3218 3220 3220 3220 3222 3222 3222 3224 3225 3226 3226 3227 3227 3226 3226 3226 3226 3226 3226 3226 3226 3227 3227 3226 3226 3226 3226 3225 3223 3220 3219 3217
3201 3203 3205 3206 3208 3209 3209 3210 3210 3211 3213 3214 3215 3217 3216 3218 3218 3219 3221 3221 3223 3223 3224 3225 3225 3225 3225 3225 3224 3224 3224 3224 3225 3225 3224 3224 3224 3224 3223 3221 3220 3217 3215
3196 3198 3201 3203 3204 3204 3204 3205 3206 3206 3208 3209 3210 3211 3212 3214 3215 3216 3216 3218 3219 3220 3220 3221 3222 3222 3222 3221 3222 3222 3222 3222 3222 3222 3222 3222 3223 3222 3220 3219 3218 3216 3213
3186 3191 3194 3194 3197 3197 3199 3199 3200 3201 3202 3202 3204 3205 3207 3208 3210 3211 3211 3213 3215 3217 3217 3218 3219 3218 3218 3218 3217 3217 3218 3218 3218 3218 3219 3219 3219 3219 3218 3216 3216 3215 3212
3178 3182 3184 3183 3187 3188 3191 3193 3195 3196 3196 3198 3198 3199 3200 3201 3203 3205 3206 3208 3209 3211 3212 3213 3214 3214 3214 3214 3215 3214 3214 3213 3213 3214 3215 3215 3215 3214 3214 3213 3212 3212 3210
3172 3173 3174 3174 3176 3175 3181 3184 3186 3189 3191 3192 3192 3191 3190 3193 3196 3198 3200 3201 3203 3205 3207 3208 3208 3209 3210 3210 3211 3211 3210 3210 3210 3211 3211 3211 3211 3210 3210 3209 3207 3206 3205
3164 3165 3167 3163 3160 3166 3173 3175 3177 3180 3183 3185 3181 3183 3183 3185 3187 3186 3193 3195 3196 3198 3199 3201 3202 3202 3202 3203 3204 3205 3206 3206 3206 3206 3206 3206 3206 3206 3205 3204 3202 3200 3198
3157 3156 3155 3158 3156 3161 3166 3165 3168 3172 3174 3176 3176 3178 3177 3178 3176 3180 3183 3186 3190 3191 3193 3193 3192 3194 3196 3196 3197 3198 3199 3200 3200 3200 3200 3200 3200 3200 3199 3198 3196 3194 3192
3153 3150 3148 3146 3151 3157 3160 3160 3161 3164 3165 3169 3173 3173 3172 3169 3170 3174 3176 3179 3182 3183 3184 3184 3185 3185 3187 3188 3190 3192 3192 3193 3194 3193 3194 3194 3193 3192 3192 3191 3190 3189 3187
3148 3148 3148 3147 3148 3152 3155 3155 3156 3157 3159 3162 3167 3171 3170 3168 3167 3171 3172 3175 3175 3176 3177 3177 3179 3180 3181 3183 3183 3184 3185 3185 3186 3187 3187 3187 3187 3185 3184 3184 3183 3182 3182
3146 3145 3146 3146 3147 3149 3150 3154 3154 3154 3157 3159 3164 3166 3165 3165 3164 3166 3167 3169 3171 3172 3173 3173 3174 3176 3176 3176 3175 3175 3176 3176 3176 3177 3178 3178 3179 3179 3178 3176 3175 3175 3175
3140 3141 3143 3144 3144 3144 3145 3149 3151 3153 3155 3158 3160 3160 3161 3160 3160 3161 3163 3163 3165 3166 3168 3169 3169 3170 3170 3170 3171 3171 3170 3169 3169 3169 3170 3171 3169 3169 3169 3167 3167 3166 3166
3139 3140 3140 3143 3143 3143 3145 3146 3148 3151 3153 3154 3156 3156 3157 3156 3156 3157 3158 3158 3159 3161 3162 3162 3163 3165 3165 3165 3166 3166 3165 3164 3164 3164 3163 3163 3162 3161 3160 3160 3159 3159 3159
3137 3138 3139 3139 3141 3141 3142 3144 3146 3146 3148 3149 3149 3148 3151 3152 3151 3150 3151 3151 3153 3154 3154 3157 3157 3157 3157 3158 3158 3158 3158 3158 3156 3156 3156 3155 3155 3153 3154 3153 3152 3152 3151
3135 3136 3138 3138 3140 3139 3141 3141 3142 3142 3142 3143 3144 3144 3145 3144 3142 3144 3144 3145 3146 3146 3146 3148 3149 3149 3148 3149 3150 3149 3148 3149 3148 3147 3147 3149 3147 3145 3145 3146 3145 3145 3143
3132 3132 3133 3134 3136 3137 3138 3138 3138 3138 3138 3139 3138 3138 3140 3139 3139 3137 3136 3139 3139 3138 3139 3138 3140 3139 3141 3139 3140 3139 3142 3141 3140 3139 3138 3138 3139 3139 3137 3138 3138 3137 3138
3130 3132 3133 3133 3132 3132 3133 3134 3135 3135 3135 3134 3133 3133 3134 3133 3133 3132 3131 3132 3133 3131 3132 3132 3131 3131 3131 3132 3133 3134 3134 3132 3132 3132 3131 3132 3131 3132 3132 3132 3131 3129 3130
3127 3127 3127 3128 3129 3129 3129 3130 3130 3129 3129 3130 3129 3127 3127 3127 3127 3126 3125 3126 3125 3124 3125 3125 3124 3126 3127 3127 3126 3127 3126 3125 3123 3123 3124 3124 3124 3125 3126 3125 3123 3121 3122
3123 3124 3125 3125 3124 3124 3124 3125 3125 3125 3125 3125 3124 3124 3124 3123 3122 3121 3118 3118 3119 3118 3117 3116 3115 3117 3117 3118 3118 3117 3116 3116 3117 3117 3117 3117 3118 3118 3119 3119 3116 3115 3115
3122 3122 3122 3121 3120 3120 3120 3120 3120 3120 3119 3119 3119 3118 3118 3116 3114 3114 3113 3113 3112 3111 3111 3110 3110 3109 3109 3109 3110 3111 3110 3108 3109 3108 3108 3109 3108 3107 3106 3108 3108 3109 3108
3117 3118 3117 3117 3117 3117 3117 3116 3116 3115 3115 3114 3113 3112 3111 3110 3109 3108 3106 3104 3104 3105 3104 3103 3102 3102 3102 3102 3102 3101 3101 3100 3099 3099 3099 3100 3101 3099 3099 3099 3098 3097 3096
3110 3111 3112 3112 3112 3112 3111 3111 3111 3110 3109 3109 3108 3106 3106 3105 3104 3102 3101 3099 3097 3097 3098 3097 3096 3096 3095 3095 3094 3093 3092 3092 3091 3091 3092 3092 3093 3093 3092 3092 3091 3089 3088
3105 3105 3104 3105 3105 3105 3105 3104 3104 3104 3102 3101 3100 3100 3098 3098 3097 3095 3094 3093 3092 3091 3091 3090 3090 3089 3088 3088 3087 3086 3085 3084 3083 3084 3086 3086 3086 3086 3086 3084 3083 3082 3081
3100 3099 3099 3098 3098 3098 3098 3098 3098 3097 3096 3094 3093 3092 3091 3089 3089 3089 3088 3087 3086 3085 3084 3084 3083 3082 3082 3082 3081 3081 3079 3078 3078 3078 3079 3079 3079 3079 3079 3078 3077 3076 3075